#timestamp,LO_Frequency,Hit,StdDev 
1588845615.3,286046994.4,N
1588845635.1,286046994.1,N
1588845655.9,286046994.3,N
1588845675.7,286046991.9,N
1588845695.5,286046992.3,N
1588845715.4,286046990.4,N
1588845735.2,286047001.7,N
1588845755.1,286047008.6,N
1588845756.0,286047008.6,N
1588845775.8,286047007.0,N
1588845795.6,286047007.5,N
1588845815.5,286047003.2,N
1588845835.3,286047001.4,N
1588845855.1,286047000.4,N
1588845875.9,286046998.9,N
1588845895.7,286046998.9,N
1588845915.6,286046997.0,N
1588845935.4,286046993.8,N
1588845955.2,286046995.0,N
1588845975.1,286046995.0,N
1588845976.0,286046995.0,N
1588845995.8,286046994.6,N
1588846015.7,286046990.1,N
1588846035.5,286046992.8,N
1588846055.3,286046991.4,N
1588846075.2,286046992.3,N
1588846095.0,286046991.3,N
1588846095.9,286046991.3,N
1588846115.7,286046990.8,N
1588846135.6,286046992.9,N
1588846155.4,286046992.0,N
1588846175.3,286046989.4,N
1588846195.1,286046989.7,N
1588846196.0,286046989.7,N
1588846215.8,286046988.8,N
1588846235.7,286046991.0,N
1588846255.5,286046990.5,N
1588846275.4,286046990.8,N
1588846295.2,286046989.0,N
1588846315.0,286046991.2,N
1588846315.9,286046991.2,N
1588846335.8,286046991.0,N
1588846355.6,286046992.7,N
1588846375.5,286046994.4,N
1588846395.3,286046992.7,N
1588846415.1,286046993.2,N
1588846435.9,286046992.1,Y
1588846455.7,286047002.2,P
1588846475.6,286047000.8,N
1588846495.4,286046998.7,N
1588846515.2,286046999.9,N
1588846535.1,286047000.5,N
1588846536.0,286047000.5,N
1588846555.8,286047001.5,N
1588846575.6,286047002.6,N
1588846595.5,286047002.4,N
1588846615.3,286046999.8,N
1588846635.2,286046998.6,N
1588846655.9,286047002.6,N
1588846675.7,286046999.0,N
1588846695.6,286046999.6,N
1588846715.4,286046999.0,N
1588846735.3,286047002.0,N
1588846755.1,286046998.4,N
1588846756.0,286046998.4,N
1588846775.8,286047001.0,N
1588846795.7,286046999.6,N
1588846815.5,286046999.1,N
1588846835.4,286047000.5,N
1588846855.2,286046999.8,N
1588846875.0,286047002.5,N
1588846875.9,286047002.5,N
1588846895.8,286047002.6,N
1588846915.6,286046999.8,N
1588846935.4,286047002.1,N
1588846955.3,286047002.2,N
1588846975.1,286047000.5,N
1588846995.9,286047000.6,N
1588847015.7,286047002.8,N
1588847035.5,286047001.0,N
1588847055.4,286047000.1,N
1588847075.2,286047000.7,N
1588847095.1,286047002.8,N
1588847096.0,286047002.8,N
1588847115.8,286047000.3,N
1588847135.6,286047000.2,N
1588847155.5,286046998.3,N
1588847175.3,286046998.3,N
1588847195.2,286046996.2,N
1588847215.9,286047002.0,N
1588847235.7,286047000.1,N
1588847255.6,286047001.3,N
1588847275.4,286047003.8,N
1588847295.2,286047004.0,N
1588847315.1,286047000.2,N
1588847316.0,286047000.2,N
1588847335.8,286047000.5,N
1588847355.7,286047002.7,N
1588847375.5,286047001.9,N
1588847395.3,286047000.5,N
1588847415.2,286047002.7,N
1588847435.0,286047001.8,N
1588847435.9,286047001.8,N
1588847455.8,286047001.4,N
1588847475.6,286047001.8,N
1588847495.4,286047001.5,N
1588847515.3,286047002.0,N
1588847535.1,286047004.4,N
1588847555.8,286047000.4,N
1588847575.7,286046999.7,N
1588847595.5,286047001.7,N
1588847615.4,286046998.9,N
1588847635.2,286047000.9,N
1588847655.0,286046998.7,N
1588847655.9,286046998.7,N
1588847675.8,286047000.9,N
1588847695.6,286046999.4,N
1588847715.5,286046996.7,N
1588847735.3,286046999.4,N
1588847755.1,286046996.1,N
1588847775.9,286046997.1,N
1588847795.7,286046999.3,N
1588847815.6,286046998.6,N
1588847835.4,286047000.8,N
1588847855.2,286046996.9,N
1588847875.1,286046999.5,N
1588847876.0,286046999.5,N
1588847895.8,286046999.3,N
1588847915.6,286047000.4,N
1588847935.5,286047001.0,N
1588847955.3,286046998.4,N
1588847975.2,286046999.0,N
1588847995.9,286047002.8,N
1588848015.7,286046999.8,N
1588848035.6,286046999.4,N
1588848055.4,286047001.1,N
1588848075.3,286047000.5,N
1588848095.1,286047002.3,N
1588848126.0,286047000.2,E
1588848135.0,286047002.8,N
1588848135.9,286047002.8,P
1588848155.8,286047000.1,P
1588848175.6,286047001.9,N
1588848195.5,286047002.6,N
1588848215.3,286047002.0,N
1588848235.1,286046999.7,N
1588848255.9,286046998.8,N
1588848275.7,286046999.6,N
1588848295.6,286046996.9,N
1588848315.4,286047000.9,N
1588848335.2,286047001.0,N
1588848355.1,286046999.6,N
1588848356.0,286046999.6,N
1588848375.8,286046998.1,N
1588848395.7,286047000.5,N
1588848415.5,286047000.0,N
1588848435.3,286047002.4,N
1588848455.2,286047000.5,N
1588848475.0,286047000.2,N
1588848475.9,286047000.2,N
1588848495.8,286046999.7,N
1588848515.6,286046998.1,N
1588848535.4,286046999.0,N
1588848555.3,286046998.2,N
1588848575.1,286046998.9,N
1588848595.8,286046997.2,N
1588848615.7,286046998.0,N
1588848635.5,286046997.6,N
1588848655.4,286046995.3,N
1588848675.2,286046996.6,N
1588848695.0,286046997.1,N
1588848695.9,286046997.1,N
1588848715.8,286046999.4,N
1588848735.6,286046997.3,N
1588848755.5,286046997.5,N
1588848775.3,286046999.4,N
1588848795.1,286047000.9,N
1588848815.9,286046996.6,N
1588848835.7,286046999.2,N
1588848855.5,286047000.8,N
1588848875.4,286047000.0,N
1588848895.2,286047001.3,N
1588848915.1,286047002.0,N
1588848916.0,286047002.0,N
1588848935.8,286047000.5,N
1588848955.6,286047000.9,N
1588848975.5,286047000.4,N
1588848995.3,286046998.7,N
1588849015.2,286047002.0,N
1588849035.9,286046998.1,N
1588849055.7,286046996.5,N
1588849075.6,286046999.3,N
1588849095.4,286047000.6,N
1588849115.2,286046998.7,N
1588849135.1,286046999.5,N
1588849136.0,286046999.5,N
1588849155.8,286046999.1,N
1588849175.7,286046999.7,N
1588849195.5,286046999.8,N
